Weather History for Monte Cimone, Italy

Change the Weather History Date:

Friday, April 5, 2013

  Actual Average Record
Temperature  
Mean Temperature 31 °F -  
Max Temperature 34 °F 35 °F 41 °F (1999)
Min Temperature 28 °F 28 °F 19 °F (2003)
Degree Days  
Heating Degree Days 34    
Moisture  
Dew Point 30 °F    
Average Humidity 94    
Maximum Humidity 100    
Minimum Humidity 90    
Precipitation  
Precipitation 0.01 in 0.07 in - ()
Sea Level Pressure  
Sea Level Pressure 29.46 in    
Wind  
Wind Speed 22 mph ()    
Max Wind Speed 39 mph    
Max Gust Speed -    
Visibility 0.0 miles    
Events Fog    
Averages and records for this station are not official NWS values.
T = Trace of Precipitation, MM = Missing Value Source: Averaged Metar Reports

Daily Weather History Graph

Daily Weather History Graph

Search for Another Location

Airport:

Trip Planner

Search our weather history database for the weather conditions in past years. The results will help you decide how hot, cold, wet, or windy it might be!

Date:

Astronomy

Apr. 05, 2013 Rise Set
Actual Time 6:51 AM CEST 7:49 PM CEST
Civil Twilight 6:21 AM CEST 8:18 PM CEST
Nautical Twilight 5:46 AM CEST 8:54 PM CEST
Astronomical Twilight 5:09 AM CEST 9:31 PM CEST
Moon 3:58 AM CEST (4/5) 2:45 PM CEST (4/5)
Length of Visible Light 13h 57m
Length of Day
12h 58m
Waning Crescent, 26% of the Moon is Illuminated
Apr 5
Waning Crescent
Apr 10
New
Apr 18
First Quarter
Apr 25
Full
May 2
Last Quarter

Hourly Weather History & Observations

Time (CEST) Temp. Windchill Dew Point Humidity Pressure Visibility Wind Dir Wind Speed Gust Speed Precip Events Conditions
12:55 AM 30.2 °F 15.7 °F 28.4 °F 93% 29.50 in 0.0 mi WSW 27.6 mph - N/A Fog Light Freezing Fog
1:55 AM 30.2 °F 13.9 °F 28.4 °F 93% 29.47 in 0.0 mi SW 36.8 mph - N/A Fog Light Freezing Fog
2:00 AM 30 °F - 29 °F 95%  in 0 mi SW 36.8 mph - - Fog Heavy Fog
2:55 AM 30.2 °F 13.5 °F 28.4 °F 93% 29.42 in 0.0 mi SW 39.1 mph - N/A Fog Light Freezing Fog
3:55 AM 30.2 °F 13.5 °F 28.4 °F 93% 29.39 in 0.0 mi SW 39.1 mph - N/A Fog Light Freezing Fog
4:55 AM 30.2 °F 13.9 °F 28.4 °F 93% 29.36 in 0.0 mi SW 36.8 mph - N/A Fog Light Freezing Fog
5:55 AM 30.2 °F 15.4 °F 28.4 °F 93% 29.36 in 0.0 mi SW 28.8 mph - N/A Fog Light Freezing Fog
6:55 AM 28.4 °F 13.8 °F 28.4 °F 100% 29.36 in 0.0 mi SW 25.3 mph - N/A Fog Light Freezing Fog
7:55 AM 30.2 °F 16.8 °F 28.4 °F 93% 29.36 in 0.0 mi SW 23.0 mph - N/A Fog Light Freezing Fog
8:00 AM 29 °F - 28 °F 96%  in 0 mi SW 23.0 mph - - Fog Heavy Fog
8:55 AM 30.2 °F 16.8 °F 28.4 °F 93% 29.36 in 0.0 mi SW 23.0 mph - N/A Fog Light Freezing Fog
9:55 AM 32.0 °F 22.1 °F 30.2 °F 93% 29.36 in 0.0 mi SW 13.8 mph - N/A Fog Light Freezing Fog
10:55 AM 32.0 °F 22.5 °F 32.0 °F 100% 29.39 in 0.0 mi SSW 12.7 mph - N/A Fog Fog
11:55 AM 33.8 °F 23.9 °F 32.0 °F 93% 29.42 in 0.0 mi SW 15.0 mph - N/A Fog Fog
12:55 PM 33.8 °F 24.3 °F 32.0 °F 93% 29.42 in 0.0 mi SSW 13.8 mph - N/A Fog Fog
1:55 PM 33.8 °F 23.2 °F 32.0 °F 93% 29.44 in 0.0 mi SSW 17.3 mph - N/A Fog Fog
2:00 PM 34 °F - 32 °F 90%  in 0 mi SSW 17.3 mph - - Fog Heavy Fog
2:55 PM 33.8 °F 24.3 °F 32.0 °F 93% 29.44 in 0.0 mi SSW 13.8 mph - N/A Fog Fog
3:55 PM 33.8 °F - 32.0 °F 93% 29.47 in 0.0 mi Calm Calm - N/A Fog Fog
4:55 PM 33.8 °F 24.3 °F 32.0 °F 93% 29.50 in 0.0 mi SSW 13.8 mph - N/A Fog Fog
5:55 PM 33.8 °F 25.3 °F 32.0 °F 93% 29.50 in - SSW 11.5 mph - N/A Fog Fog
6:55 PM 33.8 °F 24.3 °F 32.0 °F 93% 29.53 in 0.0 mi SSW 13.8 mph - N/A Fog Fog
7:55 PM 32.0 °F 20.5 °F 30.2 °F 93% 29.53 in 0.0 mi SW 18.4 mph - N/A Fog Fog
8:00 PM 32 °F - 31 °F 92%  in 0 mi SW 18.4 mph - - Fog Heavy Fog
8:55 PM 32.0 °F 20.1 °F 30.2 °F 93% 29.56 in 0.0 mi West 19.6 mph - N/A Fog Fog
9:55 PM 32.0 °F 18.6 °F 30.2 °F 93% 29.59 in 0.0 mi West 25.3 mph - N/A Fog Fog
10:55 PM 32.0 °F 20.1 °F 30.2 °F 93% 29.62 in 0.0 mi West 19.6 mph - N/A Fog Fog
11:55 PM 32.0 °F 21.2 °F 30.2 °F 93% 29.62 in 0.0 mi West 16.1 mph - N/A Fog Fog